Regional Weather Roundup
Issued by NWS Albany, NY

Home | Current Version | Previous Version | Text Only | Print | Product List | Glossary On
Versions: 1 2 3 4 5 6 7 8 9 10 11 12 13 14 15 16 17 18 19 20 21 22 23 24 25 26 27 28 29 30 31 32 33 34 35 36 37 38 39 40 41 42 43 44 45 46 47 48 49 50
000
ASUS41 KALY 011110
RWRALY

NEW YORK STATE HOURLY WEATHER ROUNDUP
NATIONAL WEATHER SERVICE ALBANY NY
700 AM EDT TUE SEP 01 2015

NOTE: "FAIR" INDICATES FEW OR NO CLOUDS BELOW 12,000 FEET WITH NO
SIGNIFICANT WEATHER AND/OR NO OBSTRUCTIONS TO VISIBILITY.

NYZ032-033-038>043-046>054-057>066-NYZ062>081-011200-
EAST


CITY           SKY/WX    TMP DP  RH WIND       PRES   REMARKS
ALBANY         PTCLDY    62  60  93 CALM      30.06R
GLENS FALLS    PTCLDY    59  58  96 CALM      30.06R FOG
POUGHKEEPSIE   CLEAR     63  61  93 CALM      30.05R FOG
NEWBURGH       CLEAR     64  64 100 CALM      30.07R
MONTGOMERY     PTCLDY    63  62  97 CALM      30.06R FOG
WHITE PLAINS   CLEAR     71  65  81 N8        30.04R
ISLIP          PTCLDY    72  67  84 CALM      30.01R
NEW YORK CITY  PTCLDY    77  67  71 VRB5      30.02R
CENTRAL PARK   CLEAR     77  65  66 CALM      30.05R
$$

NYZ005>009-017-018-044>046-055-056-011200-
CENTRAL


CITY           SKY/WX    TMP DP  RH WIND       PRES   REMARKS
FULTON         MOCLDY    64  62  93 CALM      30.06S FOG
SYRACUSE       MOCLDY    66  64  93 CALM      30.06S
ROME           CLOUDY    63  62  97 CALM      30.09R
ELMIRA         FOG       62  62 100 NW3       30.09R VSB 1/4
BINGHAMTON     FOG       61  61 100 CALM      30.11R VSB<1/4
MONTICELLO     CLEAR     59  57  94 CALM      30.12R
$$

NYZ026>034-041>043-011200-
NORTH


CITY           SKY/WX    TMP DP  RH WIND       PRES   REMARKS
WATERTOWN      FOG       65  64  97 CALM      30.05R VSB 1/2
FORT DRUM      NOT AVBL
MASSENA        FOG       55  54  96 CALM      30.06R VSB 1/4
SARANAC LAKE   FOG       58  58 100 S6        30.10R VSB<1/4
PLATTSBURGH    CLEAR     58  57  97 CALM      30.06R FOG
$$

NYZ001>004-010>016-019>021-011200-
WEST


CITY           SKY/WX    TMP DP  RH WIND       PRES   REMARKS
NIAGARA FALLS  FOG       65  64  97 CALM      30.08R VSB 1/2
BUFFALO        CLOUDY    70  68  93 CALM      30.08R FOG
DUNKIRK        MOCLDY    67  65  93 S3        30.10R FOG
JAMESTOWN      CLOUDY    57  55  94 S3        30.14R VSB<1/4
WELLSVILLE     FOG       65  63  93 NW6       30.16R VSB 1/4
ROCHESTER      CLOUDY    69  66  90 W7        30.08R FOG
PENN YAN       CLEAR     65  63  93 SW3       30.09R FOG
$$

             KEY
       WCI = WIND CHILL INDEX
       VSB = VISIBILITY
       HX  = HEAT INDEX
$$


USA.gov is the U.S. government's official web portal to all federal, state and local government web resources and services.